Location: Cudham
(51.3000°N, 0.0667°E)
Time: 02:12:49
(UTC+00:00)

Cosmos 2278 - Pass Details

Date: 15 May 2026
Orbit: 837 x 852 km, 71.1° (Epoch: 8 June)

Event Time Altitude Azimuth Distance (km) Brightness Sun altitude
Rises 20:59:18 0° 329° (NNW) 3,432 8.8 -9.7°
Reaches altitude 10° 21:01:46 10° 329° (NNW) 2,492 7.7 -10.0°
Maximum altitude 21:07:30 84° 242° (WSW) 863 3.8 -10.6°
Enters shadow 21:12:32 14° 155° (SSE) 2,224 5.3 -11.1°
